TimeAKST,TemperatureF,Dew PointF,Humidity,Sea Level PressureIn,VisibilityMPH,Wind Direction,Wind SpeedMPH,Gust SpeedMPH,PrecipitationIn,Events,Conditions,WindDirDegrees,DateUTC
2:36 AM,-18.4,-27.4,63,30.22,10.0,WSW,10.4,-,N/A,,Clear,250,2013-02-01 11:36:00
4:56 AM,-14.8,-25.6,58,30.25,10.0,WSW,8.1,-,N/A,,Overcast,240,2013-02-01 13:56:00
5:56 AM,-20.2,-27.4,69,30.26,10.0,SW,10.4,-,N/A,,Clear,230,2013-02-01 14:56:00
8:16 AM,-23.8,-9999,N/A,30.27,10.0,SW,10.4,-,N/A,,Clear,230,2013-02-01 17:16:00
8:56 AM,-23.8,-9999,N/A,30.27,10.0,SW,9.2,-,N/A,,Clear,230,2013-02-01 17:56:00
9:16 AM,-25.6,-9999,N/A,30.27,10.0,SW,9.2,-,N/A,,Clear,220,2013-02-01 18:16:00
10:56 AM,-23.8,-9999,N/A,30.28,10.0,WSW,10.4,-,N/A,,Clear,250,2013-02-01 19:56:00
12:16 PM,-22.0,-9999,N/A,30.28,10.0,WSW,9.2,-,N/A,,Clear,240,2013-02-01 21:16:00
12:36 PM,-23.8,-9999,N/A,30.28,10.0,WSW,9.2,-,N/A,,Mostly Cloudy,250,2013-02-01 21:36:00
1:16 PM,-23.8,-29.2,76,30.28,10.0,WSW,8.1,-,N/A,,Mostly Cloudy,240,2013-02-01 22:16:00
2:56 PM,-16.6,-9999,N/A,30.27,10.0,WSW,3.5,-,N/A,,Overcast,250,2013-02-01 23:56:00
3:36 PM,-18.4,-9999,N/A,30.25,10.0,WSW,4.6,-,N/A,,Overcast,240,2013-02-02 00:36:00
4:56 PM,-18.4,-25.6,70,30.23,10.0,WSW,4.6,-,N/A,,Overcast,250,2013-02-02 01:56:00
6:08 PM,-16.6,-23.8,70,30.22,10.0,Calm,Calm,-,N/A,,Overcast,0,2013-02-02 03:08:00
6:36 PM,-16.6,-27.4,58,30.20,10.0,Calm,Calm,-,N/A,,Overcast,0,2013-02-02 03:36:00
7:36 PM,-14.8,-29.2,48,30.19,10.0,Calm,Calm,-,N/A,,Overcast,0,2013-02-02 04:36:00
9:36 PM,-11.2,-20.2,64,30.16,10.0,NE,4.6,-,N/A,,Overcast,50,2013-02-02 06:36:00
9:56 PM,-11.2,-16.6,77,30.15,10.0,NNE,3.5,-,N/A,,Overcast,30,2013-02-02 06:56:00
10:16 PM,-9.4,-9999,N/A,30.14,10.0,NE,3.5,-,N/A,,Overcast,40,2013-02-02 07:16:00
11:56 PM,-7.6,-9999,N/A,30.10,10.0,North,5.8,-,N/A,,Overcast,10,2013-02-02 08:56:00